Location: Boiro
(42.6475°N, 8.8834°W)
Time: 15:55:25
(UTC+02:00)

SL-8 DEB - Visible Passes

Search period start: 03 July 2022 00:00
Search period end: 13 July 2022 00:00
Orbit: 892 x 1011 km, 83.1° (Epoch: 03 July)

Date Brightness Start Highest point End Pass type
(mag) Time Alt. Az. Time Alt. Az. Time Alt. Az.
03 Jul ? 01:38:23 10° NNW 01:44:23 73° W 01:46:06 47° SSW visible
04 Jul ? 00:12:33 10° NNE 00:17:31 26° ENE 00:20:11 19° ESE visible
04 Jul ? 01:56:56 10° NNW 02:02:35 45° W 02:04:20 35° SW visible
05 Jul ? 00:30:26 10° N 00:36:04 41° ENE 00:38:26 29° SE visible
05 Jul ? 02:15:43 10° NNW 02:20:40 28° W 02:22:36 23° WSW visible
06 Jul ? 00:48:33 10° N 00:54:30 66° E 00:56:42 38° SSE visible
06 Jul ? 02:34:57 10° NW 02:38:38 17° W 02:40:52 14° WSW visible
06 Jul ? 23:23:47 10° NNE 23:27:12 15° ENE 23:30:33 10° E visible
07 Jul ? 01:06:52 10° N 01:12:49 78° W 01:14:59 41° S visible
07 Jul ? 23:41:08 10° NNE 23:45:53 24° ENE 23:49:07 16° ESE visible
08 Jul ? 01:25:21 10° NNW 01:31:01 48° W 01:33:16 32° SW visible
08 Jul ? 23:58:57 10° N 00:04:27 38° ENE 00:07:25 23° SE visible
09 Jul ? 01:44:05 10° NNW 01:49:07 30° W 01:51:35 22° SW visible
10 Jul ? 00:17:02 10° N 00:22:53 61° E 00:25:44 30° SSE visible
10 Jul ? 02:03:13 10° NW 02:07:07 19° W 02:09:54 13° WSW visible
10 Jul ? 22:52:31 10° NNE 22:55:32 14° ENE 22:58:31 10° E visible
11 Jul ? 00:35:18 10° N 00:41:14 84° W 00:44:04 32° S visible
11 Jul ? 02:23:39 10° WNW 02:25:01 11° WNW 02:26:22 10° W visible
11 Jul ? 23:09:42 10° NNE 23:14:14 22° ENE 23:18:14 12° ESE visible
12 Jul ? 00:53:45 10° NNW 00:59:26 52° W 01:02:24 27° SSW visible
12 Jul ? 23:27:27 10° N 23:32:49 35° ENE 23:36:36 17° SE visible
